Location: Praha
(50.0830°N, 14.4670°E)
Time: 20:09:53
(UTC+02:00)

ISS - Pass Details

Date: 25 June 2024
Orbit: 409 x 421 km, 51.6° (Epoch: 14 June)

Event Time Altitude Azimuth Distance (km) Brightness Sun altitude
Rises 10:50:41 0° 283° (WNW) 2,362 -0.3 52.7°
Reaches altitude 10° 10:53:17 10° 262° (W) 1,497 -1.1 53.1°
Maximum altitude 10:55:31 17° 220° (SW) 1,152 -1.4 53.4°
Drops below altitude 10° 10:57:44 10° 179° (S) 1,492 -0.5 53.6°
Enters shadow 11:33:48 -70° 117° (ESE) 12,417 3.3 58.0°
Exits shadow 12:09:39 -39° 318° (NW) 8,629 2.3 61.2°
